{"data":{"norad_id":45460,"intl_designator":"2020-021A","name":"YAOGAN-30 07A","alt_names":[],"object_type":"PAYLOAD","status":"ACTIVE","operator":null,"country":"PRC","launch_date":"2020-03-24","launch_site_code":"XICLF","launch_vehicle":null,"mission":null,"orbit_class":"UNKNOWN","rcs_meters":null,"size_class":null,"mass_kg":null,"dimensions":null,"purposes":[],"wikipedia_slug":null,"has_3d_model":false,"image_url":null,"decayed_at":null,"tle_current":{"epoch":"2026-09-20T05:30:43.159680Z","epoch_age_seconds":91376,"freshness":"FRESH","line1":"1 45460U 20021A   26263.22966620  .00001730  00000+0  12779-3 0  9995","line2":"2 45460  34.9965 351.4393 0003183 152.7202 207.3674 15.03094951354861","mean_motion":15.03094951,"eccentricity":0.0003183,"inclination_deg":34.9965,"raan_deg":351.4393,"arg_perigee_deg":152.7202,"mean_anomaly_deg":207.3674,"bstar":0.00012779,"rev_number":35486,"period_min":95.802330986607,"perigee_km":555.15204487061,"apogee_km":559.56718201473,"semimajor_km":6935.4966134427,"source":"CELESTRAK","updated_at":"2026-09-20T09:00:14.664059Z"}}}